Погода в Витиме

Погода в Витиме : погода сейчас, прогноз погоды и архив. Всё, что Вы хотите узнать о погоде в Витиме!

Хотите узнать прогноз погоды в Витиме? Тогда Вам сюда: Погода в Витиме

Поиск расширенной информации на нашем сайте:

Другие новости

Новости СМИ2

Главная страница сайта

Новости сайта

02.10.2013

Напоминаем, что на нашем новом сайте вы можете получить высокодетализированные прогнозы погоды по пунктам России, СНГ и мира (включающие важные для авиации метеовеличины, такие как направление и скорость ветра, видимость, явления погоды, количество и форма облачности, нижняя и верхняя граница облачности), а также ознакомиться с разнообразными материалами по авиационной метеорологии и подборкой полезных ссылок на эту тему.

Сайт Метеоцентр.Азия посвящён разработке технологий оптимизации авиаметеорологического обслуживания, включая проектирование и перспективное создание нескольких автоматизированных авиаметеорологических систем:
- система выпуска высокодетальных прогностических карт явлений погоды для нижнего воздушного пространства по России и ближнему зарубежью;
- система верификации прогнозов TAF (выпускаемых синоптиками официальных АМСГ РФ и ближнего зарубежья) и AUTOTAF (выпускаемых сайтом Метеоцентр.Азия) - выявление ошибок, онлайн-сопоставление с фактической погодой METAR, автоматическое внесение коррективов в прогнозы при резком отклонении фактической погоды от прогноза, подсчёт оправдываемости прогнозов по элементам и в целом;
- система обработки, анализа и отображения авиаметеорологической информации для применения провайдерами метеорологической информации.

Рекомендуем: Купить повязка воскопран цена.

Погода в Витиме - сегодня

Время (UTC), дата Ветер
(°,м/с) 
Видим.   Явления Облачность Т
(°С)
Тd
(°С)
f(%) Тe
(°С)
Pmin
(гПа)
dP
(гПа)
Po
(мм)
O2
(г/м3)
Тmin Tmax R s Состояние
почвы
00 28.03.17 160 (Ю) 4000 м  дымка  9/3 300 м средняя, верхняя 
[St|Ac lent|Ci fib]
-11.6 -12.9 90 -11  1026.7  1.8  751  317  -15.2    0.0  59  равномерный
мокрый или
старый снег
100% 
03 28.03.17 тихо ()   20000 м    ясно 
-3.3 -6.8 77 -3  1026.8  0.8  752  307           
06 28.03.17 тихо ()   20000 м    8/8 1000 м кучево-дожд. 
[Cb cap]
-2.1 -6.7 71 -2  1025.9  -0.3  752  306           
09 28.03.17 210 (ЮЗ) 20000 м    6/6 1000 м 
[Cu hum]
+2.9 -10.1 38 +2  1025.7  -0.2  752  301           
12 28.03.17 тихо ()   20000 м    3/3 1000 м 
[Sc diur, vesp]
-1 -10.7 48 -1  1026.8  0.6  752  305    +3.6       
15 28.03.17 210 (ЮЗ) 20000 м    ясно 
-7.8 -10.9 78 -8  1027.6  0.2  752  313           
18 28.03.17 тихо ()   20000 м    ясно 
-10.7 -12.7 85 -11  1028.5  0.6  753  317           
21 28.03.17 210 (ЮЗ) 20000 м    ясно 
-13 -14.3 90 -13  1029.3  0.6  753  320           
00 29.03.17 190 (Ю) 20000 м    4/0 верхняя 
[Ci fib]
-12.8 -14.8 85 -13  1029.6  0.3  753  320  -14.1      59  равномерный
мокрый или
старый снег
100% 
03 29.03.17 190 (Ю) 20000 м    8/0 средняя, верхняя 
[Ac lent|Ci fib]
-3.3 -9.3 63 -4  1028.2  -0.4  753  308           
06 29.03.17 200 (Ю) 20000 м    9/0 средняя, верхняя 
[Ac lent|Ci fib]
+4.3 -6.3 46 +3  1025.5  -1.9  752  299           
09 29.03.17 220 (ЮЗ) 20000 м    8/0 средняя, верхняя 
[Ac lent|Ci fib]
+6.5 -6.6 39 +5  1024.3  -1  751  296           
12 29.03.17 200 (Ю) 20000 м    4/0 средняя, верхняя 
[Ac lent|Ci fib]
+3.3 -7.5 45 +2  1024.4  -0.2  751  300    +7.1       
15 29.03.17 150 (ЮВ) 20000 м    4/0 верхняя 
[Ci fib]
-3.3 -7.6 72 -4  1025.3  0.3  751  307           
18 29.03.17 120 (ЮВ) 20000 м    9/0 верхняя 
[Ci fib]
-2.4 -8 65 -3  1025.2  751  306           
21 29.03.17 190 (Ю) 20000 м    8/0 верхняя 
[Ci fib]
-3.4 -8.5 68 -5  1025.2  -0.1  751  307           
00 30.03.17 тихо ()   20000 м    9/0 средняя, верхняя 
[Ac trans|Ci fib]
-2.3 -6.6 72 -2  1025.1  751  306  -4.7      59  равномерный
мокрый или
старый снег
100% 
03 30.03.17 200 (Ю) 20000 м    9/0 средняя, верхняя 
[Ac lent|Ci fib]
+5.4 -2.7 56 +3  1022.4  -2  749  296           
06 30.03.17 210 (ЮЗ) 6-10{12}  20000 м    9/0 средняя, верхняя 
[Ac lent|Ci fib]
+8.5 -1.4 50 +7  1019.6  -2.5  747  292           
09 30.03.17 230 (ЮЗ) 7-10{13}  20000 м    9/0 средняя, верхняя 
[Ac lent|Ci fib]
+10.7 -1.6 42 +9  1017  -2.4  746  289           
12 30.03.17 190 (Ю) 4{11}  20000 м    6/3 600 м кучево-дожд., средняя, верхняя 
[Cb cap|Ac lent|Ci fib]
+6.8 -3.6 47 +5  1016.4  -0.9  745  293    +11       
15 30.03.17 160 (Ю) 20000 м    9/3 600 м кучево-дожд., средняя, верхняя 
[Cb cap|Ac lent|Cs]
+3.2 -4.3 58 +3  1016.6  -0.1  745  297           
18 30.03.17 190 (Ю) 20000 м    10/4 600 м кучево-дожд., средняя, верхняя 
[Cb cap|Ac lent|Cs]
+5.1 -3.5 54 +6  1017  0.6  745  295           
21 30.03.17 210 (ЮЗ) 20000 м    8/3 600 м кучево-дожд., средняя, верхняя 
[Cb cap|Ac lent|Cs]
+2.5 -4.1 62 +3  1017.4  0.1  745  298           
00 31.03.17 170 (Ю) 20000 м    9/1 600 м кучево-дожд., средняя, верхняя 
[Cb cap|Ac trans|Ci fib]
+2.4 -2.5 70 +3  1017.5  0.1  745  298  +2.1      54  равномерный
мокрый или
старый снег
100% 
Время (UTC), дата Ветер
(°,м/с) 
Видим.   Явления Облачность Т
(°С)
Тd
(°С)
f(%) Тe
(°С)
Pmin
(гПа)
dP
(гПа)
Po
(мм)
O2
(г/м3)
Тmin Tmax R s Состояние
почвы

Для получения пояснительной информации подведите курсор к названию столбца.

ПОГОДА в Витиме - архив

Всё, что Вы хотите узнать о погоде в Витиме - удобно и подробно!

Выберите нужную дату (начиная с 1 января 2015* года) и нажмите кнопку "Найти".
Будут отображены архивные сводки погоды по пункту Витим, начиная с указанной даты.


Отображать данные в формате CSV (для использования в таблицах Excel)


Внимание! Наш архив погоды предназначен исключительно для личного некоммерческого использования в познавательных целях. Если Вам необходимы официальные справки о состоянии погоды (для производственных, юридических, коммерческих и т.п. целей), обращайтесь в органы Росгидромета.

*Примечание: данная дата относится к архиву по метеостанциям СССР (Россия, СНГ, Балтия).
Архив по метеостанциям Зарубежной Европы и Азии (кроме Китая) хранится 10 дней, по другим регионам земного шара (Китай, Африка, Америка, Австралия, Океания) - 1 день.

Витим - район местоположения метеостанции


Название, широта, долгота, высота метеостанции:
Витим 59.4°ш. 112.6°д. 190 м над ур. моря [Российская Федерация]

Дополнительная информация

В oтличие oт бoльшинства пoгoдных сайтoв мы публикуем пoдрoбную метеoинфoрмацию в детальнoм прoфессиoнальнoм фoрмате.

Характеристики температуры и влажнoсти вoздуха измеряются на высoте 2 м в тени вдали oт зданий и деревьев.
Скoрoсть ветра измеряется на высoте 10 м (на урoвне рoста челoвека скoрoсть ветра ниже в 1.5-2 раза). Если метеoстанция нахoдится в гoрoде или в лесу, тo скoрoсть ветра занижена на 2-4 м/с пo сравнению с oткрытым местoм. Скoрoсть ветра над акватoриями крупных рек и oзёр, а также на вершинах хoлмoв на 2-5 м/с выше, чем в oбычных услoвиях.
Атмoсфернoе давление в разных тoчках местнoсти мoжет значительнo oтличаться oт давления на метеoстанции, в зависимoсти oт услoвий рельефа (при пoдъёме на 10 м давление пoнижается примернo на 1 мм рт.ст.).